GW4317 Weather Reports


time (UTC)temp
F
wind
direction
speed
knots
gust
knots
rain 1hr
in
rain 24hr
in
rain mn
in
humidity
%
barometer
mb
20260906221609 99 163 3.5 7.0 0.00 0.00 0.00 41 1010.7
20260906221100 99 131 2.6 6.1 0.00 0.00 0.00 41 1010.6
20260906220600 99 103 2.6 6.1 0.00 0.00 0.00 42 1010.6
20260906220107 99 124 3.5 7.8 0.00 0.00 0.00 42 1010.6
20260906215600 99 146 3.5 7.8 0.00 0.00 0.00 41 1010.7
20260906215100 99 122 3.5 7.0 0.00 0.00 0.00 42 1010.6
20260906214613 99 171 3.5 7.0 0.00 0.00 0.00 42 1010.8
20260906214100 100 221 3.5 8.7 0.00 0.00 0.00 42 1010.9
20260906213603 100 143 2.6 8.7 0.00 0.00 0.00 42 1011.0
20260906213108 100 219 3.5 8.7 0.00 0.00 0.00 42 1011.1
20260906212601 100 235 2.6 8.7 0.00 0.00 0.00 42 1011.2
20260906212100 99 63 2.6 8.7 0.00 0.00 0.00 43 1011.2
20260906211607 99 229 2.6 7.8 0.00 0.00 0.00 42 1011.3
20260906211100 99 41 4.3 10.4 0.00 0.00 0.00 41 1011.5
20260906210600 99 161 3.5 10.4 0.00 0.00 0.00 41 1011.7
20260906210113 99 18 3.5 7.8 0.00 0.00 0.00 42 1011.8
20260906205603 100 130 1.7 7.0 0.00 0.00 0.00 42 1011.8
20260906205059 99 155 3.5 9.6 0.00 0.00 0.00 42 1011.9
20260906204604 99 46 2.6 10.4 0.00 0.00 0.00 42 1011.9
20260906204102 99 121 4.3 10.4 0.00 0.00 0.00 41 1012.0
20260906203559 99 88 2.6 7.8 0.00 0.00 0.00 43 1011.9
20260906203108 99 162 3.5 7.8 0.00 0.00 0.00 44 1012.0
20260906202558 99 278 3.5 7.8 0.00 0.00 0.00 44 1012.1
20260906202058 98 165 3.5 8.7 0.00 0.00 0.00 42 1012.1
20260906201637 98 333 3.5 8.7 0.00 0.00 0.00 44 1012.2
20260906201100 97 129 3.5 8.7 0.00 0.00 0.00 44 1012.2
20260906200559 99 48 3.5 7.8 0.00 0.00 0.00 44 1012.3
20260906200105 99 277 3.5 8.7 0.00 0.00 0.00 44 1012.2
20260906195559 99 156 4.3 8.7 0.00 0.00 0.00 42 1012.2
20260906195059 99 156 2.6 7.8 0.00 0.00 0.00 42 1012.3
20260906194608 99 322 4.3 7.8 0.00 0.00 0.00 43 1012.4
20260906194058 99 227 2.6 9.6 0.00 0.00 0.00 43 1012.4
20260906193559 98 133 3.5 9.6 0.00 0.00 0.00 44 1012.5
20260906193106 98 124 3.5 9.6 0.00 0.00 0.00 43 1012.5
20260906192558 99 148 3.5 8.7 0.00 0.00 0.00 43 1012.5
20260906192059 98 167 4.3 8.7 0.00 0.00 0.00 45 1012.7
20260906191613 99 332 3.5 9.6 0.00 0.00 0.00 43 1012.7
20260906191058 98 221 4.3 12.2 0.00 0.00 0.00 45 1012.7
20260906190600 98 73 5.2 12.2 0.00 0.00 0.00 45 1012.8
20260906190108 98 32 3.5 8.7 0.00 0.00 0.00 46 1012.7
20260906185602 98 159 4.3 11.3 0.00 0.00 0.00 44 1012.8
20260906185059 98 139 4.3 11.3 0.00 0.00 0.00 45 1012.8
20260906184603 98 177 3.5 11.3 0.00 0.00 0.00 45 1012.9
20260906184058 98 65 3.5 9.6 0.00 0.00 0.00 47 1013.0
20260906183559 97 273 1.7 9.6 0.00 0.00 0.00 47 1013.0
20260906183106 98 167 4.3 9.6 0.00 0.00 0.00 47 1013.2
20260906182601 97 272 3.5 8.7 0.00 0.00 0.00 47 1013.1
20260906182104 97 103 3.5 8.7 0.00 0.00 0.00 48 1013.1
20260906181633 97 32 4.3 8.7 0.00 0.00 0.00 49 1013.2
20260906181059 97 360 3.5 8.7 0.00 0.00 0.00 48 1013.5
20260906180559 97 136 3.5 12.2 0.00 0.00 0.00 49 1013.5
20260906180107 96 221 3.5 12.2 0.00 0.00 0.00 50 1013.5
20260906175601 95 181 7.0 12.2 0.00 0.00 0.00 49 1013.6
20260906175100 96 26 6.1 12.2 0.00 0.00 0.00 48 1013.6
20260906174611 96 96 1.7 7.0 0.00 0.00 0.00 49 1013.9
20260906174059 96 250 2.6 7.0 0.00 0.00 0.00 52 1013.9
20260906173558 96 205 2.6 8.7 0.00 0.00 0.00 52 1014.0
20260906173111 95 67 4.3 9.6 0.00 0.00 0.00 52 1014.0
20260906172601 95 198 5.2 10.4 0.00 0.00 0.00 52 1014.1
20260906172100 94 205 4.3 10.4 0.00 0.00 0.00 53 1014.1
20260906171603 95 39 4.3 9.6 0.00 0.00 0.00 52 1014.1
20260906171059 95 50 2.6 8.7 0.00 0.00 0.00 52 1014.2
20260906170558 95 69 3.5 7.8 0.00 0.00 0.00 54 1014.3
20260906170107 95 136 2.6 7.8 0.00 0.00 0.00 54 1014.2
20260906165600 94 161 2.6 7.0 0.00 0.00 0.00 54 1014.3
20260906165059 94 54 2.6 7.0 0.00 0.00 0.00 54 1014.5
20260906164603 94 150 3.5 7.8 0.00 0.00 0.00 52 1014.5
20260906164059 94 81 2.6 7.8 0.00 0.00 0.00 54 1014.6
20260906163603 94 206 3.5 7.8 0.00 0.00 0.00 53 1014.6
20260906163112 94 251 2.6 7.8 0.00 0.00 0.00 54 1014.6
20260906162601 94 167 2.6 7.0 0.00 0.00 0.00 54 1014.7
20260906162102 94 92 1.7 7.0 0.00 0.00 0.00 54 1014.6
20260906161611 94 93 2.6 6.1 0.00 0.00 0.00 54 1014.5
20260906161058 93 329 3.5 6.1 0.00 0.00 0.00 56 1014.5
20260906160559 93 264 2.6 8.7 0.00 0.00 0.00 55 1014.5
20260906160114 93 249 0.9 12.2 0.00 0.00 0.00 57 1014.5
20260906155559 92 127 3.5 12.2 0.00 0.00 0.00 55 1014.5
20260906155102 93 34 3.5 7.0 0.00 0.00 0.00 55 1014.5
20260906154625 93 191 1.7 4.3 0.00 0.00 0.00 58 1014.5
20260906154059 93 189 1.7 5.2 0.00 0.00 0.00 59 1014.5
20260906153559 92 138 0.9 5.2 0.00 0.00 0.00 62 1014.4
20260906153115 92 25 1.7 6.1 0.00 0.00 0.00 60 1014.4
20260906152558 92 140 1.7 6.1 0.00 0.00 0.00 60 1014.3
20260906152100 92 226 0.9 5.2 0.00 0.00 0.00 63 1014.2
20260906151629 91 31 1.7 3.5 0.00 0.00 0.00 63 1014.1
20260906151059 91 51 1.7 4.3 0.00 0.00 0.00 63 1014.0
20260906150559 90 170 0.0 4.3 0.00 0.00 0.00 65 1014.0
20260906150107 90 13 1.7 4.3 0.00 0.00 0.00 65 1013.9
20260906145601 90 127 0.9 4.3 0.00 0.00 0.00 66 1014.0
20260906145101 89 30 0.0 4.3 0.00 0.00 0.00 66 1014.0
20260906144608 89 30 0.9 4.3 0.00 0.00 0.00 66 1013.9
20260906144100 89 75 0.9 3.5 0.00 0.00 0.00 68 1014.0
20260906143601 88 0 0.9 6.1 0.00 0.00 0.00 70 1013.9
20260906143108 87 139 1.7 6.1 0.00 0.00 0.00 68 1013.8
20260906142600 88 88 0.9 4.3 0.00 0.00 0.00 69 1013.8
20260906142101 87 120 2.6 4.3 0.00 0.00 0.00 69 1013.9
20260906141606 88 150 0.9 3.5 0.00 0.00 0.00 70 1014.0
20260906141100 87 53 0.0 2.6 0.00 0.00 0.00 71 1014.0
20260906140600 87 98 0.0 1.7 0.00 0.00 0.00 72 1014.1
20260906140109 86 160 0.0 2.6 0.00 0.00 0.00 72 1014.2
20260906135601 86 94 0.0 3.5 0.00 0.00 0.00 74 1014.1
20260906135103 85 114 0.9 3.5 0.00 0.00 0.00 75 1014.1
20260906134618 85 195 0.9 3.5 0.00 0.00 0.00 76 1014.1
20260906134101 84 0 0.0 1.7 0.00 0.00 0.00 77 1014.2
20260906133600 84 0 0.0 1.7 0.00 0.00 0.00 78 1014.3
20260906133119 83 105 0.0 1.7 0.00 0.00 0.00 79 1014.3
20260906132600 83 127 0.0 1.7 0.00 0.00 0.00 80 1014.4
20260906132103 82 118 0.9 1.7 0.00 0.00 0.00 80 1014.3
20260906131606 82 120 0.0 1.7 0.00 0.00 0.00 81 1014.2
20260906131100 82 0 0.0 1.7 0.00 0.00 0.00 80 1014.1
20260906130600 81 0 0.0 0.0 0.00 0.00 0.00 81 1014.1
20260906130113 80 0 0.0 0.0 0.00 0.00 0.00 82 1014.0
20260906125601 80 0 0.0 0.0 0.00 0.00 0.00 83 1013.9
20260906125105 79 0 0.0 0.0 0.00 0.00 0.00 84 1013.9
20260906124612 78 0 0.0 0.0 0.00 0.00 0.00 87 1013.9
20260906124101 76 0 0.0 0.0 0.00 0.00 0.00 87 1013.9
20260906123600 76 0 0.0 0.0 0.00 0.00 0.00 87 1013.9
20260906123104 75 0 0.0 0.0 0.00 0.00 0.00 88 1013.8
20260906122600 75 0 0.0 0.0 0.00 0.00 0.00 88 1013.8
20260906122059 75 0 0.0 0.0 0.00 0.00 0.00 88 1013.8
20260906121625 75 0 0.0 0.0 0.00 0.00 0.00 88 1013.7
20260906121101 75 0 0.0 0.0 0.00 0.00 0.00 88 1013.6
20260906120601 75 0 0.0 0.0 0.00 0.00 0.00 88 1013.5
20260906120104 75 0 0.0 0.0 0.00 0.00 0.00 87 1013.5
20260906115653 75 0 0.0 0.0 0.00 0.00 0.00 87 1013.5
20260906115100 75 0 0.0 0.0 0.00 0.00 0.00 87 1013.5
20260906114630 75 0 0.0 0.0 0.00 0.00 0.00 87 1013.5
20260906114100 76 0 0.0 0.0 0.00 0.00 0.00 87 1013.5
20260906113600 76 0 0.0 0.0 0.00 0.00 0.00 87 1013.4
20260906113114 76 0 0.0 0.0 0.00 0.00 0.00 86 1013.4
20260906112603 76 0 0.0 0.0 0.00 0.00 0.00 86 1013.3
20260906112101 76 0 0.0 0.0 0.00 0.00 0.00 86 1013.2
20260906111604 76 0 0.0 0.0 0.00 0.00 0.00 86 1013.3
20260906111101 76 0 0.0 0.0 0.00 0.00 0.00 85 1013.2
20260906110601 76 0 0.0 0.0 0.00 0.00 0.00 85 1013.1
20260906110116 77 0 0.0 0.0 0.00 0.00 0.00 85 1013.1
20260906105601 77 0 0.0 0.0 0.00 0.00 0.00 85 1013.0
20260906105101 77 0 0.0 0.0 0.00 0.00 0.00 85 1013.0
20260906104605 77 0 0.0 0.9 0.00 0.00 0.00 85 1013.0
20260906104100 77 0 0.0 0.9 0.00 0.00 0.00 85 1012.9
20260906103601 77 0 0.0 0.9 0.00 0.00 0.00 85 1013.0
20260906103114 76 117 0.0 0.9 0.00 0.00 0.00 85 1012.9
20260906102601 77 133 0.0 0.9 0.00 0.00 0.00 86 1012.8
20260906102104 77 142 0.0 0.9 0.00 0.00 0.00 86 1012.9
20260906101606 77 0 0.0 0.9 0.00 0.00 0.00 86 1012.8
20260906101101 77 0 0.0 0.9 0.00 0.00 0.00 85 1012.8
20260906100601 77 0 0.0 0.0 0.00 0.00 0.00 84 1012.7
20260906100112 77 0 0.0 0.0 0.00 0.00 0.00 84 1012.7
20260906095601 77 0 0.0 0.0 0.00 0.00 0.00 84 1012.6
20260906095101 77 0 0.0 0.0 0.00 0.00 0.00 84 1012.6
20260906094605 77 0 0.0 0.0 0.00 0.00 0.00 84 1012.6
20260906094100 77 0 0.0 0.0 0.00 0.00 0.00 84 1012.6
20260906093601 77 0 0.0 0.0 0.00 0.00 0.00 84 1012.5
20260906093109 77 0 0.0 0.0 0.00 0.00 0.00 84 1012.5
20260906092600 77 0 0.0 0.0 0.00 0.00 0.00 83 1012.4
20260906092101 77 0 0.0 0.0 0.00 0.00 0.00 83 1012.4
20260906091614 77 0 0.0 0.0 0.00 0.00 0.00 83 1012.3
20260906091103 78 0 0.0 0.0 0.00 0.00 0.00 83 1012.2
20260906090600 78 0 0.0 0.0 0.00 0.00 0.00 83 1012.2
20260906090111 78 0 0.0 0.0 0.00 0.00 0.00 82 1012.2
20260906085601 78 0 0.0 0.0 0.00 0.00 0.00 82 1012.2
20260906085101 78 0 0.0 0.0 0.00 0.00 0.00 82 1012.2
20260906084607 78 0 0.0 0.0 0.00 0.00 0.00 82 1012.2
20260906084100 78 0 0.0 0.0 0.00 0.00 0.00 82 1012.3
20260906083559 78 0 0.0 0.0 0.00 0.00 0.00 82 1012.2
20260906083107 78 0 0.0 0.0 0.00 0.00 0.00 82 1012.3
20260906082558 78 0 0.0 0.0 0.00 0.00 0.00 81 1012.2
20260906082059 79 0 0.0 0.0 0.00 0.00 0.00 80 1012.0
20260906081606 79 0 0.0 0.0 0.00 0.00 0.00 80 1012.0
20260906081059 79 0 0.0 0.9 0.00 0.00 0.00 80 1011.9
20260906080559 79 0 0.0 0.9 0.00 0.00 0.00 80 1012.0
20260906080111 79 0 0.0 0.9 0.00 0.00 0.00 80 1012.0
20260906075559 79 144 0.0 0.9 0.00 0.00 0.00 79 1012.0
20260906075059 79 155 0.0 0.0 0.00 0.00 0.00 79 1012.1
20260906074602 79 0 0.0 0.0 0.00 0.00 0.00 79 1012.1
20260906074058 79 0 0.0 0.0 0.00 0.00 0.00 79 1012.2
20260906073559 79 0 0.0 0.0 0.00 0.00 0.00 79 1012.3
20260906073105 79 0 0.0 0.0 0.00 0.00 0.00 79 1012.3
20260906072559 79 0 0.0 0.0 0.00 0.00 0.00 79 1012.4
20260906072100 79 0 0.0 0.0 0.00 0.00 0.00 79 1012.4
20260906071616 79 0 0.0 0.0 0.00 0.00 0.00 78 1012.4
20260906071058 79 0 0.0 0.0 0.00 0.00 0.00 78 1012.5
20260906070600 80 0 0.0 0.0 0.00 0.00 0.00 78 1012.4
20260906070106 80 0 0.0 0.0 0.00 0.00 0.00 78 1012.6
20260906065559 80 0 0.0 0.0 0.00 0.00 0.00 77 1012.4
20260906065059 80 0 0.0 0.0 0.00 0.00 0.00 77 1012.4
20260906064606 80 0 0.0 0.0 0.00 0.00 0.00 77 1012.3
20260906064059 80 0 0.0 0.0 0.00 0.00 0.00 76 1012.3
20260906063600 80 0 0.0 0.0 0.00 0.00 0.00 76 1012.4
20260906063105 80 0 0.0 0.0 0.00 0.00 0.00 76 1012.5
20260906062601 80 0 0.0 0.0 0.00 0.00 0.00 76 1012.4
20260906062058 80 0 0.0 0.0 0.00 0.00 0.00 75 1012.4
20260906061606 81 0 0.0 0.0 0.00 0.00 0.00 75 1012.4
20260906061059 81 0 0.0 0.0 0.00 0.00 0.00 75 1012.3
20260906060559 81 0 0.0 0.9 0.00 0.00 0.00 75 1012.3
20260906060155 81 0 0.0 0.9 0.00 0.00 0.00 74 1012.4
20260906055559 81 120 0.0 0.9 0.00 0.00 0.00 73 1012.4
20260906055059 82 0 0.0 0.0 0.00 0.00 0.00 73 1012.5
20260906054616 82 0 0.0 0.0 0.00 0.00 0.00 73 1012.5
20260906054059 82 0 0.0 0.0 0.00 0.00 0.00 72 1012.5
20260906053600 82 0 0.0 0.0 0.00 0.00 0.00 72 1012.5
20260906053105 82 0 0.0 0.0 0.00 0.00 0.00 72 1012.6
20260906052600 82 0 0.0 0.0 0.00 0.00 0.00 72 1012.7
20260906052105 82 0 0.0 0.0 0.00 0.00 0.00 71 1012.8
20260906051606 82 0 0.0 0.0 0.00 0.00 0.00 71 1012.8
20260906051101 82 0 0.0 0.0 0.00 0.00 0.00 70 1012.7
20260906050602 83 0 0.0 0.0 0.00 0.00 0.00 70 1012.7
20260906050116 83 0 0.0 0.0 0.00 0.00 0.00 70 1012.7
20260906045600 83 0 0.0 0.0 0.00 0.00 0.00 69 1012.7
20260906045101 83 0 0.0 0.0 0.00 0.00 0.00 68 1012.5
20260906044606 84 0 0.0 0.0 0.00 0.00 0.00 68 1012.5
20260906044104 84 0 0.0 0.0 0.00 0.00 0.00 67 1012.4
20260906043600 84 0 0.0 0.9 0.00 0.00 0.00 67 1012.5
20260906043110 84 0 0.0 1.7 0.00 0.00 0.00 66 1012.5
20260906042601 85 0 0.0 1.7 0.00 0.00 0.00 66 1012.5
20260906042101 85 160 0.0 1.7 0.00 0.00 0.00 66 1012.4
20260906041605 85 146 0.0 1.7 0.00 0.00 0.00 65 1012.4
20260906041100 85 0 0.0 1.7 0.00 0.00 0.00 65 1012.5
20260906040601 85 174 0.0 2.6 0.00 0.00 0.00 64 1012.4
20260906040109 86 0 0.0 2.6 0.00 0.00 0.00 64 1012.4
20260906035600 86 174 0.9 3.5 0.00 0.00 0.00 64 1012.4
20260906035101 86 153 0.9 3.5 0.00 0.00 0.00 63 1012.4
20260906034608 86 153 0.9 2.6 0.00 0.00 0.00 63 1012.5
20260906034100 86 139 0.9 1.7 0.00 0.00 0.00 63 1012.6
20260906033600 86 147 0.9 2.6 0.00 0.00 0.00 62 1012.6
20260906033111 87 134 0.9 3.5 0.00 0.00 0.00 62 1012.5
20260906032601 87 141 0.9 4.3 0.00 0.00 0.00 62 1012.5
20260906032101 87 150 0.9 4.3 0.00 0.00 0.00 61 1012.5
20260906031630 87 178 1.7 4.3 0.00 0.00 0.00 61 1012.6
20260906031101 87 273 1.7 4.3 0.00 0.00 0.00 60 1012.6
20260906030601 87 117 1.7 6.1 0.00 0.00 0.00 60 1012.5
20260906030109 88 162 1.7 6.1 0.00 0.00 0.00 60 1012.5
20260906025600 88 137 2.6 8.7 0.00 0.00 0.00 59 1012.5
20260906025105 88 148 2.6 8.7 0.00 0.00 0.00 60 1012.4
20260906024607 88 136 2.6 7.0 0.00 0.00 0.00 59 1012.3
20260906024104 89 128 2.6 9.6 0.00 0.00 0.00 58 1012.3
20260906023603 89 195 2.6 9.6 0.00 0.00 0.00 58 1012.2
20260906023113 89 205 2.6 6.1 0.00 0.00 0.00 58 1012.0
20260906022101 89 162 2.6 10.4 0.00 0.00 0.00 57 1011.9
20260906021612 90 217 3.5 5.2 0.00 0.00 0.00 57 1011.8
20260906021101 90 205 2.6 5.2 0.00 0.00 0.00 56 1011.8
20260906020601 90 127 2.6 10.4 0.00 0.00 0.00 55 1011.7
20260906020106 90 200 4.3 10.4 0.00 0.00 0.00 55 1011.6
20260906015601 90 209 1.7 4.3 0.00 0.00 0.00 53 1011.5
20260906015101 90 155 0.9 2.6 0.00 0.00 0.00 52 1011.4
20260906014609 90 151 0.9 1.7 0.00 0.00 0.00 52 1011.2
20260906014101 90 110 0.9 1.7 0.00 0.00 0.00 51 1011.1
20260906013601 91 124 0.9 1.7 0.00 0.00 0.00 51 1011.0
20260906013109 91 137 0.0 1.7 0.00 0.00 0.00 50 1011.0
20260906012601 91 117 0.0 1.7 0.00 0.00 0.00 50 1010.9
20260906012100 91 113 0.0 0.9 0.00 0.00 0.00 49 1010.8
20260906011615 92 0 0.0 0.0 0.00 0.00 0.00 48 1010.7
20260906011100 92 0 0.0 0.9 0.00 0.00 0.00 48 1010.7
20260906010600 92 0 0.0 0.9 0.00 0.00 0.00 47 1010.6
20260906010114 93 0 0.0 2.6 0.00 0.00 0.00 47 1010.6
20260906005600 93 0 0.0 2.6 0.00 0.00 0.00 46 1010.6
20260906005101 94 127 0.0 2.6 0.00 0.00 0.00 45 1010.6
20260906004608 94 112 0.9 1.7 0.00 0.00 0.00 45 1010.6
20260906004101 95 106 0.0 3.5 0.00 0.00 0.00 44 1010.7
20260906003601 95 134 0.9 3.5 0.00 0.00 0.00 43 1010.6
20260906003108 96 136 0.9 3.5 0.00 0.00 0.00 43 1010.6
20260906002603 96 115 0.9 4.3 0.00 0.00 0.00 42 1010.6
20260906002101 97 150 0.9 4.3 0.00 0.00 0.00 42 1010.6
20260906001615 97 105 1.7 4.3 0.00 0.00 0.00 42 1010.6
20260906001100 97 105 2.6 5.2 0.00 0.00 0.00 41 1010.6
20260906000600 97 101 0.9 6.1 0.00 0.00 0.00 41 1010.6
20260906000110 97 221 0.9 6.1 0.00 0.00 0.00 41 1010.5
20260905235600 98 98 3.5 6.1 0.00 0.00 0.00 40 1010.6
20260905235101 98 141 1.7 4.3 0.00 0.00 0.00 41 1010.5
20260905234602 98 216 0.9 4.3 0.00 0.00 0.00 40 1010.4
20260905234104 98 49 0.9 6.1 0.00 0.00 0.00 40 1010.4
20260905233601 99 248 1.7 6.1 0.00 0.00 0.00 40 1010.4
20260905233108 99 60 0.9 4.3 0.00 0.00 0.00 39 1010.4
20260905232600 99 78 1.7 4.3 0.00 0.00 0.00 39 1010.4
20260905232101 99 60 1.7 4.3 0.00 0.00 0.00 39 1010.4
20260905231619 100 0 0.9 4.3 0.00 0.00 0.00 40 1010.4
20260905231101 99 158 0.9 4.3 0.00 0.00 0.00 39 1010.4
20260905230601 99 245 0.9 4.3 0.00 0.00 0.00 39 1010.4
20260905230112 99 184 0.9 4.3 0.00 0.00 0.00 39 1010.4
20260905225600 99 134 1.7 4.3 0.00 0.00 0.00 39 1010.5
20260905225101 99 226 0.9 7.8 0.00 0.00 0.00 38 1010.4
20260905224609 99 240 1.7 7.8 0.00 0.00 0.00 38 1010.4
20260905224101 99 122 2.6 7.8 0.00 0.00 0.00 38 1010.4
20260905223600 100 0 1.7 5.2 0.00 0.00 0.00 39 1010.4
20260905223106 100 118 2.6 5.2 0.00 0.00 0.00 39 1010.4
20260905222601 99 218 1.7 6.1 0.00 0.00 0.00 38 1010.4
20260905222101 99 133 1.7 6.1 0.00 0.00 0.00 39 1010.5